Location: Unspecified
(0.0000°N, 0.0000°E)
Time: 16:57:31
(UTC+00:00)

HO-68 - Pass Details

Date: 07 June 2023
Orbit: 1193 x 1204 km, 100.3° (Epoch: 28 September)

Event Time Altitude Azimuth Distance (km) Brightness Sun altitude
Rises 02:03:36 0° 37° (NE) 4,089 ? -52.1°
Reaches altitude 10° 02:06:38 10° 48° (NE) 3,126 ? -51.5°
Enters shadow 02:08:47 18° 61° (ENE) 2,544 ? -51.1°
